Location: Trebic
(49.2170°N, 15.8830°E)
Time: 19:07:30
(UTC+02:00)

Courier 1B - All Passes

Search period start: 22 July 2019 00:00
Search period end: 01 August 2019 00:00
Orbit: 963 x 1209 km, 28.3° (Epoch: 21 July)

Date Brightness Start Highest point End Pass type
(mag) Time Alt. Az. Time Alt. Az. Time Alt. Az.
22 Jul - 08:54:24 10° SSW 08:57:56 14° S 09:01:23 10° SSE daylight
22 Jul - 10:48:56 10° SSW 10:50:34 11° SSW 10:52:11 10° S daylight
23 Jul - 08:00:56 10° SSW 08:04:25 14° S 08:07:52 10° SSE daylight
23 Jul - 09:54:13 10° SSW 09:57:06 13° S 09:59:58 10° SSE daylight
24 Jul - 07:07:43 10° SSW 07:10:54 13° S 07:14:03 10° SE daylight
24 Jul - 09:00:06 10° SW 09:03:38 14° S 09:07:06 10° SSE daylight
25 Jul - 06:14:57 10° S 06:17:23 12° SSE 06:19:49 10° SSE daylight
25 Jul - 08:06:16 10° SSW 08:10:07 14° S 08:13:54 10° SSE daylight
25 Jul - 10:02:00 10° SSW 10:02:45 10° SSW 10:03:30 10° SSW daylight
26 Jul - 07:12:40 10° SSW 07:16:34 15° S 07:20:27 10° SSE daylight
26 Jul - 09:06:33 10° SW 09:09:17 12° SSW 09:12:00 10° S daylight
27 Jul - 06:19:19 10° SSW 06:23:03 14° S 06:26:44 10° SE daylight
27 Jul - 08:12:16 10° SW 08:15:47 14° S 08:19:16 10° SSE daylight
28 Jul - 05:26:16 10° SSW 05:29:30 13° SSE 05:32:44 10° SE daylight
28 Jul - 07:18:20 10° SW 07:22:16 15° S 07:26:09 10° SSE daylight
29 Jul - 04:33:46 10° S 04:35:59 11° SSE 04:38:13 10° SSE visible
29 Jul - 06:24:39 10° SSW 06:28:43 15° S 06:32:45 10° SSE daylight
29 Jul - 08:19:15 10° SSW 08:21:25 11° SSW 08:23:34 10° S daylight
30 Jul - 05:31:13 10° SSW 05:35:10 15° S 05:39:07 10° SE daylight
30 Jul - 07:24:40 10° SW 07:27:55 13° SSW 07:31:08 10° SSE daylight
31 Jul - 04:38:04 10° SSW 04:41:37 14° S 04:45:13 10° SE visible
31 Jul - 06:30:38 10° SW 06:34:22 14° S 06:38:07 10° SSE daylight
